Flag for U.S.A. Weather past 2 weeks in Fort Lauderdale, Florida, U.S.A.

75 °F

Partly cloudy.

Feels Like: 76 °F
Forecast: 72 / 82 °F
Wind: 8 mph from West

Location: Fort Lauderdale / Hollywood International Airport

Current Time: Oct 5, 2015 at 12:54:58 AM

Latest Report: Oct 4, 2015 at 11:53 PM

Visibility: 10 mi

Pressure: 29.75 "Hg

Humidity: 76%

Dew point: 67 °F

Location of Fort LauderdaleLocation

Historic Weather in Fort Lauderdale — Graph


Fort Lauderdale temperature yesterday

Maximum temperature yesterday: 87 °F (at 2:53 PM)
Minimum temperature yesterday: 71 °F (at 5:53 AM)
Average temperature yesterday: 79 °F

Past Weeks' High & Low Weather Summary

High91 °F (Sep 30, 4:53 PM)100% (Sep 20, 12:53 AM)29.95 "Hg (Sep 20, 12:53 AM)
Low71 °F (Oct 4, 5:53 AM)45% (Oct 3, 2:53 PM)29.50 "Hg (Oct 2, 3:53 PM)
Average82 °F80%29.81 "Hg
* Reported Sep 19 10:53 PM — Oct 4 10:53 PM, Fort Lauderdale, Weather by CustomWeather, © 2015

Note: Actual official high and low records may vary slightly from our data, if they occured in-between our weather recording intervals... More about our weather records


Fort Lauderdale weather history for previous 24 hours

Time TempWeatherWind HumidityBarometerVisibility
10:53 PM
Sun, Oct 4
76 °FPassing clouds.6 mph77%29.76 "Hg10 mi
9:53 PM76 °FPassing clouds.9 mph74%29.76 "Hg10 mi
8:53 PM79 °FPassing clouds.10 mph60%29.73 "Hg10 mi
7:53 PM81 °FPassing clouds.13 mph58%29.71 "Hg10 mi
6:53 PM83 °FPassing clouds.14 mph55%29.69 "Hg10 mi
5:53 PM84 °FScattered clouds.17 mph49%29.68 "Hg10 mi
4:53 PM86 °FScattered clouds.24 mph48%29.66 "Hg10 mi
3:53 PM86 °FScattered clouds.16 mph55%29.66 "Hg10 mi
2:53 PM87 °FScattered clouds.14 mph50%29.67 "Hg10 mi
1:53 PM86 °FScattered clouds.14 mph55%29.70 "Hg10 mi
12:53 PM84 °FBroken clouds.17 mph57%29.72 "Hg10 mi
11:53 AM84 °FBroken clouds.13 mph59%29.73 "Hg10 mi
10:53 AM80 °FBroken clouds.12 mph64%29.74 "Hg10 mi
9:53 AM79 °FPassing clouds.8 mph69%29.74 "Hg10 mi
8:53 AM75 °FPassing clouds.7 mph82%29.72 "Hg10 mi
7:53 AM73 °FPassing clouds.8 mph88%29.72 "Hg10 mi
6:53 AM72 °FPassing clouds.5 mph87%29.70 "Hg10 mi
5:53 AM71 °FClear.No wind90%29.69 "Hg10 mi
4:53 AM73 °FClear.7 mph84%29.68 "Hg10 mi
3:53 AM74 °FClear.6 mph82%29.67 "Hg10 mi
2:53 AM74 °FPassing clouds.6 mph82%29.67 "Hg10 mi
1:53 AM75 °FClear.5 mph76%29.67 "Hg10 mi
12:53 AM76 °FClear.8 mph74%29.67 "Hg10 mi
Weather by CustomWeather, © 2015

See weather overviewHow to use our weather pages